Starlink 32558

operational
NORAD ID: 62169 Int'l Des: 2024-225 Owner: SPXS Country: US Constellation: starlink
LEOCIRCULAR

About Starlink 32558

Description loading...

Live Position

Loading 3D Globe...

Upcoming Passes

Altitude History

Altitude vs Time

uPlot chart will show altitude changes over time

Two-Line Element Set

1 62169U 24225G 25348.50395373 .00001634 00000-0 14468-3 0 9996
2 62169 70.0030 19.2933 0003107 271.4914 88.5889 14.98329264 57110
Epoch: Dec 14, 2025 • Age: 29 hours

Current Status

Altitude 574.8 km
Velocity 7.57 km/s
Sub-Earth Point 19.49°N, 43.6°E
Launch Date Nov 30, 2024
Age 1 years
Type internet

Technical Details

Classification Payload
Mass 730.00 kg
Dry Mass 700.00 kg
Total Mass 730.00 kg
Length 0.30 m
Diameter 4.10 m
Span 29.00 m
Shape Box + pan
Manufacturer SPXS
Bus Type Starlink V2M
Phase Status In Orbit
Owner/State SPXS/US

Large Constellations

Loading constellations...